Waarnemingen

Advertentie
Mijn weer
Jerez de los Caballeros, Spanje (8337): temperatuur & dauwpunt: 06.11.2019 08:00:00 - 12.11.2019 08:00:00 (CET)Jerez de los Caballeros, Spanje (8337): windsnelheid & windstoten: 06.11.2019 08:00:00 - 12.11.2019 08:00:00 (CET)Jerez de los Caballeros, Spanje (8337): windrichting: 06.11.2019 08:00:00 - 12.11.2019 08:00:00 (CET)Jerez de los Caballeros, Spanje (8337): luchtdruk: 06.11.2019 08:00:00 - 12.11.2019 08:00:00 (CET)Jerez de los Caballeros, Spanje (8337): zicht: 06.11.2019 08:00:00 - 12.11.2019 08:00:00 (CET)Jerez de los Caballeros, Spanje (8337): Zonneschijnduur: 06.11.2019 08:00:00 - 12.11.2019 08:00:00 (CET)Jerez de los Caballeros, Spanje (8337): neerslag: 06.11.2019 08:00:00 - 12.11.2019 08:00:00 (CET)
Datum & Tijd tt [°C] td [°C] ff [km/u] ff [kn] fx [km/u] fx [kn] dd ppp [hPa] vv [km] sd [min] rr [mm]
12.11.2019 08:00:00 - - - - - - - - - - -
12.11.2019 07:00:00 8,3 7,0 11 6 16 9 W 1019,0 6 0 -
12.11.2019 06:00:00 8,2 6,8 13 7 17 9 W 1018,7 12 0 0,0
12.11.2019 05:00:00 8,6 7,4 10 5 18 10 W 1019,1 10 0 0,0
12.11.2019 04:00:00 8,5 7,1 6 4 10 5 ZW 1018,9 1,5 0 0,0
12.11.2019 03:00:00 8,9 7,6 2 1 15 8 NW 1019,5 4,7 0 0,0
12.11.2019 02:00:00 8,9 7,3 10 5 16 9 W 1019,8 7 0 0,0
12.11.2019 01:00:00 9,3 7,3 4 2 11 6 W 1020,0 11 0 -
12.11.2019 00:00:00 9,8 7,3 10 5 20 11 W 1019,9 12 0 0,0
11.11.2019 23:00:00 10,2 7,4 9 5 18 10 W 1019,6 15 0 0,0
11.11.2019 22:00:00 11,1 7,8 16 9 21 11 ZW 1019,6 15 0 0,0
11.11.2019 21:00:00 12,1 8,4 10 5 27 14 ZW 1019,0 20 0 0,0
11.11.2019 20:00:00 13,5 9,3 14 8 29 16 W 1018,1 20 0 0,0
11.11.2019 19:00:00 14,7 10,5 14 7 22 12 W 1017,2 20 0 -
11.11.2019 18:00:00 16,2 11,8 11 6 34 18 W 1016,9 20 28 0,0
11.11.2019 17:00:00 16,3 12,8 18 10 32 17 W 1017,1 20 3 0,0
11.11.2019 16:00:00 16,3 12,8 25 14 35 19 W 1016,6 20 20 0,0
11.11.2019 15:00:00 15,5 13,0 23 13 31 17 W 1017,2 20 4 0,0
11.11.2019 14:00:00 14,7 12,7 16 9 23 13 W 1018,0 20 0 0,0
11.11.2019 13:00:00 14,5 12,5 16 9 24 13 W 1019,2 20 0 -
11.11.2019 12:00:00 13,3 12,2 14 8 20 11 WNW 1019,8 7 0 0,0
11.11.2019 11:00:00 11,7 10,6 7 4 9 5 ZW 1020,2 0,4 0 0,0
11.11.2019 10:00:00 11,0 9,9 5 3 11 6 ZZW 1020,9 0,2 0 0,0
11.11.2019 09:00:00 10,4 9,3 9 5 10 5 WZW 1020,7 0,2 0 0,2
11.11.2019 08:00:00 10,2 8,9 3 2 7 4 ZZW 1020,6 0,8 0 0,0
11.11.2019 07:00:00 10,2 8,9 5 3 7 4 ZZW 1020,4 0,4 0 -
11.11.2019 06:00:00 10,0 8,8 4 2 11 6 W 1021,0 0,3 0 0,0
11.11.2019 05:00:00 10,0 8,8 7 4 9 5 ZW 1020,9 0,3 0 0,4
11.11.2019 04:00:00 9,9 8,7 4 2 10 5 Z 1021,1 1,2 0 0,6
11.11.2019 03:00:00 9,9 8,7 8 4 13 7 ZW 1021,2 0,2 0 0,4
11.11.2019 02:00:00 9,7 8,3 9 5 13 7 ZZW 1022,3 0,3 0 0,8
11.11.2019 01:00:00 9,7 8,1 8 4 19 11 ZZW 1022,5 0,8 0 -
11.11.2019 00:00:00 9,9 8,0 14 8 27 14 WZW 1022,9 2,3 0 0,4
10.11.2019 23:00:00 10,5 7,4 16 8 24 13 W 1022,8 11 0 0,0
10.11.2019 22:00:00 10,8 7,1 11 6 25 14 W 1022,7 20 0 0,0
10.11.2019 21:00:00 11,0 7,1 17 9 29 16 W 1022,4 20 0 0,0
10.11.2019 20:00:00 11,3 6,7 18 10 33 18 W 1022,6 20 0 0,0
10.11.2019 19:00:00 11,6 6,2 15 8 29 15 W 1023,0 20 0 -
10.11.2019 18:00:00 11,9 5,9 16 9 39 21 W 1022,7 20 0 0,0
10.11.2019 17:00:00 12,4 4,8 26 14 42 23 WNW 1022,4 20 0 0,0
10.11.2019 16:00:00 13,0 4,1 31 17 43 23 W 1022,0 20 0 0,0
10.11.2019 15:00:00 13,3 4,1 27 15 44 24 WNW 1022,2 20 0 0,0
10.11.2019 14:00:00 13,1 3,4 22 12 39 21 WNW 1022,1 20 0 0,0
10.11.2019 13:00:00 13,4 4,3 20 11 30 16 W 1022,9 20 15 -
10.11.2019 12:00:00 12,9 5,1 18 10 41 22 WNW 1023,3 20 60 0,0
10.11.2019 11:00:00 11,6 5,5 17 9 33 18 WNW 1023,2 20 60 0,0
10.11.2019 10:00:00 10,1 6,4 19 10 28 15 WNW 1023,6 20 60 0,0
10.11.2019 09:00:00 8,6 6,2 15 8 25 14 W 1023,9 16 31 0,0
10.11.2019 08:00:00 8,5 5,8 17 9 30 16 W 1023,2 18 0 0,0
10.11.2019 07:00:00 9,1 5,6 20 11 37 20 WNW 1022,2 20 0 -
10.11.2019 06:00:00 8,7 6,8 16 9 30 16 W 1022,4 13 0 0,0
10.11.2019 05:00:00 8,3 6,5 11 6 29 15 ZW 1022,3 10 0 0,0
10.11.2019 04:00:00 8,4 6,5 15 8 31 17 WZW 1022,4 10 0 0,0
10.11.2019 03:00:00 8,0 6,2 15 8 23 12 W 1022,8 10 0 0,0
10.11.2019 02:00:00 8,9 6,5 20 11 35 19 W 1022,7 16 0 0,0
10.11.2019 01:00:00 9,2 7,1 24 13 32 17 W 1022,5 14 0 -
10.11.2019 00:00:00 10,1 7,7 19 11 41 22 W 1022,9 16 0 0,0
09.11.2019 23:00:00 12,3 10,4 23 12 35 19 W 1021,9 20 0 0,0
09.11.2019 22:00:00 12,8 11,3 23 12 34 18 WZW 1021,9 20 0 0,2
09.11.2019 21:00:00 12,3 10,9 15 8 20 11 WZW 1021,7 12 0 0,6
09.11.2019 20:00:00 12,4 10,6 10 5 24 13 WZW 1022,1 6 0 0,2
09.11.2019 19:00:00 12,8 9,7 21 11 39 21 WZW 1022,5 6 0 -
09.11.2019 18:00:00 13,8 8,3 27 14 41 22 ZW 1021,8 20 0 0,0
09.11.2019 17:00:00 14,7 7,7 23 13 36 19 WZW 1022,1 20 0 0,0
09.11.2019 16:00:00 14,6 7,0 24 13 36 19 WZW 1022,6 20 2 0,0
09.11.2019 15:00:00 15,4 6,4 16 9 32 17 ZW 1022,9 20 9 0,0
09.11.2019 14:00:00 14,7 5,8 18 10 34 19 WZW 1023,8 20 35 0,0
09.11.2019 13:00:00 14,2 5,3 20 11 33 18 W 1024,6 20 60 -
09.11.2019 12:00:00 13,0 5,9 7 4 13 7 Z 1025,6 20 60 0,0
09.11.2019 11:00:00 10,1 4,6 5 3 9 5 Z 1026,0 20 60 0,0
09.11.2019 10:00:00 7,5 4,3 4 2 8 4 Z 1026,7 20 60 0,0
09.11.2019 09:00:00 5,0 3,4 1 1 4 2 NNW 1026,7 20 49 0,0
09.11.2019 08:00:00 2,9 1,5 3 1 7 4 NNO 1026,8 15 0 0,0
09.11.2019 07:00:00 3,8 1,7 1 1 6 3 NW 1026,2 15 0 -
09.11.2019 06:00:00 4,4 2,3 3 2 6 4 WZW 1025,6 20 0 0,0
09.11.2019 05:00:00 4,3 2,1 4 2 8 5 ZZW 1025,4 20 0 0,0
09.11.2019 04:00:00 4,8 1,9 6 4 9 5 ZZW 1025,9 20 0 0,0
09.11.2019 03:00:00 5,7 2,5 3 1 8 4 OZO 1025,9 20 0 0,0
09.11.2019 02:00:00 5,7 2,1 6 4 11 6 ZZW 1026,0 20 0 0,0
09.11.2019 01:00:00 6,7 2,3 8 4 9 5 ZZW 1026,1 20 0 -
09.11.2019 00:00:00 7,9 2,3 3 2 9 5 Z 1025,8 20 0 0,0
08.11.2019 23:00:00 7,9 2,5 6 3 11 6 ONO 1025,6 20 0 0,0
08.11.2019 22:00:00 9,4 2,3 5 3 18 10 WZW 1025,1 20 0 0,0
08.11.2019 21:00:00 10,0 2,3 13 7 31 17 WZW 1024,6 20 0 0,0
08.11.2019 20:00:00 10,9 2,3 20 11 31 17 WNW 1023,9 20 0 0,0
08.11.2019 19:00:00 11,4 1,3 11 6 25 13 W 1023,0 20 6 -
08.11.2019 18:00:00 13,3 1,1 13 7 29 16 W 1022,1 20 60 0,0
08.11.2019 17:00:00 14,4 0,6 19 10 34 18 W 1021,3 20 60 0,0
08.11.2019 16:00:00 14,5 0,4 16 9 32 17 WNW 1020,8 20 60 0,0
08.11.2019 15:00:00 14,6 0,9 19 11 32 17 WNW 1020,6 20 60 0,0
08.11.2019 14:00:00 14,0 -0,5 14 7 30 16 WNW 1020,9 20 60 0,0
08.11.2019 13:00:00 13,6 0,2 15 8 28 15 W 1021,1 20 60 -
08.11.2019 12:00:00 12,1 1,1 16 9 35 19 WNW 1022,0 20 60 0,0
08.11.2019 11:00:00 10,6 3,2 25 14 36 20 W 1021,9 20 60 0,0
08.11.2019 10:00:00 9,4 4,8 14 7 27 14 W 1021,8 20 60 0,0
08.11.2019 09:00:00 8,6 5,8 13 7 30 16 W 1021,3 20 46 0,0
08.11.2019 08:00:00 8,5 5,6 21 11 31 17 W 1020,3 20 0 0,0
08.11.2019 07:00:00 8,7 6,5 16 9 28 15 WZW 1019,6 20 0 -
08.11.2019 06:00:00 8,5 6,1 19 10 25 14 W 1019,4 20 0 0,0
08.11.2019 05:00:00 9,0 6,5 16 9 26 14 W 1019,0 20 0 0,0
08.11.2019 04:00:00 9,2 6,8 16 9 25 13 WZW 1018,8 20 0 0,0
08.11.2019 03:00:00 9,2 6,1 10 5 25 13 WZW 1018,8 20 0 0,0
08.11.2019 02:00:00 9,7 6,4 14 8 21 11 WZW 1018,4 20 0 0,0
08.11.2019 01:00:00 9,4 5,9 10 5 18 10 WZW 1019,0 20 0 -
08.11.2019 00:00:00 9,3 5,3 8 4 14 7 ZW 1019,0 20 0 0,0
07.11.2019 23:00:00 9,6 5,1 8 5 22 12 WZW 1019,2 20 0 0,0
07.11.2019 22:00:00 - - - - - - - - - - -
07.11.2019 21:00:00 10,7 3,9 13 7 21 11 W 1018,5 20 0 0,0
07.11.2019 20:00:00 11,8 3,2 10 5 28 15 ZW 1018,1 20 0 0,0
07.11.2019 19:00:00 12,5 2,9 18 10 31 17 W 1017,4 20 0 -
07.11.2019 18:00:00 14,0 2,9 23 12 43 23 W 1016,5 20 53 0,0
07.11.2019 17:00:00 15,0 3,2 21 11 48 26 W 1016,4 20 57 0,0
07.11.2019 16:00:00 15,1 2,3 31 17 51 28 WNW 1016,1 20 60 0,0
07.11.2019 15:00:00 15,7 5,6 24 13 48 26 W 1016,0 20 60 0,0
07.11.2019 14:00:00 14,9 4,8 27 14 44 24 WNW 1016,5 20 59 0,0
07.11.2019 13:00:00 14,3 4,8 28 15 45 24 W 1017,1 20 60 -
07.11.2019 12:00:00 13,6 4,5 32 17 50 27 WNW 1017,8 20 59 0,0
07.11.2019 11:00:00 13,2 5,3 28 15 42 23 W 1017,3 20 60 0,0
07.11.2019 10:00:00 12,8 6,8 18 10 34 18 WNW 1016,7 20 31 0,0
07.11.2019 09:00:00 12,3 7,4 19 10 35 19 WNW 1015,9 20 0 0,0
07.11.2019 08:00:00 13,5 11,7 17 9 32 17 W 1014,7 9 0 0,4
07.11.2019 07:00:00 13,6 12,5 11 6 23 12 WZW 1014,4 0,6 0 -
07.11.2019 06:00:00 13,2 12,1 15 8 25 13 ZW 1014,6 0,3 0 1,6
07.11.2019 05:00:00 12,8 11,6 15 8 21 11 WZW 1014,7 0,4 0 1,0
07.11.2019 04:00:00 12,5 11,2 14 8 20 11 WZW 1015,3 1,1 0 1,6
07.11.2019 03:00:00 12,2 10,8 10 6 19 10 ZW 1015,8 0,2 0 0,2
07.11.2019 02:00:00 12,1 10,3 15 8 22 12 ZW 1016,6 3,9 0 0,2
07.11.2019 01:00:00 12,0 9,7 10 5 17 9 ZW 1017,5 20 0 -
07.11.2019 00:00:00 12,6 9,8 10 5 17 9 ZW 1018,0 20 0 0,0
06.11.2019 23:00:00 12,7 9,7 14 8 21 11 WZW 1018,3 19 0 0,0
06.11.2019 22:00:00 13,5 9,6 15 8 22 12 WZW 1018,3 20 0 0,0
06.11.2019 21:00:00 13,8 9,0 14 7 30 16 WZW 1018,3 20 0 0,0
06.11.2019 20:00:00 14,2 8,7 18 10 27 15 W 1018,5 20 0 0,0
06.11.2019 19:00:00 14,3 8,5 15 8 21 11 WZW 1017,9 20 0 -
06.11.2019 18:00:00 14,7 8,1 17 9 33 18 W 1017,7 20 1 0,0
06.11.2019 17:00:00 15,3 7,1 26 14 38 20 W 1017,7 20 4 0,0
06.11.2019 16:00:00 16,2 6,4 23 12 41 22 WNW 1017,8 20 50 0,0
06.11.2019 15:00:00 16,4 6,5 25 14 40 21 W 1017,9 20 35 0,0
06.11.2019 14:00:00 16,5 6,4 24 13 39 21 WNW 1018,2 20 49 0,0
06.11.2019 13:00:00 16,0 7,0 19 10 33 18 W 1019,1 20 60 -
06.11.2019 12:00:00 14,6 7,4 16 9 26 14 WZW 1019,9 20 60 0,0
06.11.2019 11:00:00 13,1 8,1 13 7 23 13 ZW 1020,7 20 60 0,0
06.11.2019 10:00:00 11,4 9,3 11 6 18 10 ZW 1021,3 20 53 0,0
06.11.2019 09:00:00 8,8 7,4 3 2 10 5 Z 1021,1 10 16 0,0
06.11.2019 08:00:00 8,4 7,0 8 4 19 10 W 1020,9 12 0 0,0

tt = temperatuur
td = dauwpunt
ff = windsnelheid
fx = windstoten
dd = windrichting
ppp = luchtdruk
vv = zicht
sd = Zonneschijnduur
rr = neerslag

Weerstations in de omgeving